Flag for Switzerland Weather past 2 weeks in Schaffhausen, Schaffhausen, Switzerland

Now
71 °F

Mild.


Feels Like: 71 °F
Forecast: 62 / 95 °F
Wind: 1 mph from Northwest

Location: Zurich-Kloten

Current Time: Jul 4, 2015 at 2:00:37 AM

Latest Report: Jul 4, 2015 at 1:00 AM


Visibility: N/A

Pressure: 30.16 "Hg

Humidity: 80%

Dew point: 64 °F

Location of SchaffhausenLocation

Historic Weather in Schaffhausen — Graph

°F

Schaffhausen temperature yesterday

Maximum temperature yesterday: 93 °F (at 4:00 PM)
Minimum temperature yesterday: 69 °F (at 2:00 AM)
Average temperature yesterday: 81 °F

Past Weeks' High & Low Weather Summary

 TemperatureHumidityPressure
High93 °F (Jul 3, 4:00 PM)96% (Jun 19, 1:00 AM)30.25 "Hg (Jun 19, 1:00 AM)
Low44 °F (Jun 24, 5:00 AM)25% (Jun 25, 7:00 PM)29.74 "Hg (Jun 22, 10:00 PM)
Average66 °F66%30.09 "Hg
* Reported Midnight between Jun 18 and Jun 19 — Midnight between Jul 3 and Jul 4, Schaffhausen, Weather by CustomWeather, © 2015

Note: Actual official high and low records may vary slightly from our data, if they occured in-between our weather recording intervals... More about our weather records

Advertising

Schaffhausen weather history for previous 24 hours

 ConditionsComfort  
Time TempWeatherWind HumidityBarometerVisibility
12:00 AM
Sat, Jul 4
73 °FMild.5 mph72%30.16 "HgN/A
11:00 PM
Fri, Jul 3
78 °FPassing clouds.5 mph61%30.14 "Hg12 mi
10:00 PM80 °FWarm.6 mph58%30.13 "HgN/A
9:00 PM85 °FWarm.5 mph48%30.11 "HgN/A
8:00 PM88 °FPassing clouds.10 mph47%30.11 "Hg12 mi
7:00 PM90 °FHot.14 mph42%30.12 "HgN/A
6:00 PM92 °FHot.12 mph38%30.10 "HgN/A
5:00 PM92 °FPassing clouds.9 mph41%30.09 "Hg12 mi
4:00 PM93 °FHot.5 mph38%30.11 "HgN/A
3:00 PM92 °FHot.7 mph40%30.12 "HgN/A
2:00 PM91 °FPassing clouds.3 mph40%30.14 "Hg12 mi
1:00 PM90 °FHot.7 mph43%30.16 "HgN/A
12:00 PM88 °FWarm.5 mph44%30.18 "HgN/A
11:00 AM85 °FWarm.3 mph49%30.19 "HgN/A
10:00 AM81 °FWarm.2 mph57%30.20 "HgN/A
9:00 AM77 °FWarm.1 mph70%30.22 "HgN/A
8:00 AM72 °FScattered clouds.2 mph82%30.23 "Hg16 mi
7:00 AM73 °FMild.2 mph75%30.22 "HgN/A
6:00 AM70 °FMild.6 mph78%30.21 "HgN/A
5:00 AM69 °FPassing clouds.7 mph82%30.20 "Hg16 mi
4:00 AM70 °FMild.5 mph82%30.19 "HgN/A
3:00 AM70 °FMild.2 mph80%30.19 "HgN/A
2:00 AM69 °FPassing clouds.1 mph84%30.19 "Hg16 mi
Weather by CustomWeather, © 2015

See weather overviewHow to use our weather pages